Weather History for KBTA - June, 2012

Change the Weather History Date:

Friday, June 15, 2012

  Actual Average (KOMA) Record (KOMA)
Temperature  
Mean Temperature 68 °F 72 °F  
Max Temperature 73 °F 83 °F 104 °F (1946)
Min Temperature 64 °F 61 °F 45 °F (1969)
Degree Days  
Heating Degree Days 0 0  
Month to date heating degree days 15  
Since 1 June heating degree days 15  
Since 1 July heating degree days 6165  
Cooling Degree Days 4 8  
Month to date cooling degree days 87  
Year to date cooling degree days 169  
Since 1 June cooling degree days 87  
Growing Degree Days 18 (Base 50)    
Moisture  
Dew Point 63 °F    
Average Humidity 85    
Maximum Humidity 91    
Minimum Humidity 67    
Precipitation  
Precipitation 0.61 in 0.14 in 1.86 in (1937)
Month to date precipitation 2.25  
Year to date precipitation 13.53  
Snow  
Snow 0.00 in 0.00 in - ()
Month to date snowfall 0.0  
Since 1 July snowfall 26.4  
Snow Depth -    
Sea Level Pressure  
Sea Level Pressure 29.93 in    
Wind  
Wind Speed 10 mph (North)    
Max Wind Speed 21 mph    
Max Gust Speed 28 mph    
Visibility 10 miles    
Events Rain , Thunderstorm    
T = Trace of Precipitation, MM = Missing Value Source: NWS Daily Summary

Daily Weather History Graph

Daily Weather History Graph

Search for Another Location

Airport or City:

Trip Planner

Search our weather history database for the weather conditions in past years. The results will help you decide how hot, cold, wet, or windy it might be!

Date:

Astronomy

Jun. 15, 2012 Rise Set
Actual Time 5:50 AM CDT 8:59 PM CDT
Civil Twilight 5:16 AM CDT 9:33 PM CDT
Nautical Twilight 4:32 AM CDT 10:17 PM CDT
Astronomical Twilight 3:40 AM CDT 11:09 PM CDT
Moon 3:06 AM CDT (6/15) 5:39 PM CDT (6/15)
Length of Visible Light 16h 17m
Length of Day
15h 09m
Waning Crescent, 13% of the Moon is Illuminated
Jun 15
Waning Crescent
Jun 19
New
Jun 26
First Quarter
Jul 3
Full
Jul 10
Last Quarter

Hourly Weather History & Observations

Time (CDT) Temp. Dew Point Humidity Pressure Visibility Wind Dir Wind Speed Gust Speed Precip Events Conditions
12:15 AM 68.7 °F 60.6 °F 75% 29.93 in 10.0 mi SSE 12.7 mph - 0.04 in Rain , Thunderstorm Rain
12:35 AM 69.1 °F 59.4 °F 71% 29.91 in 7.0 mi SSE 10.4 mph - 0.11 in Rain , Thunderstorm Heavy Thunderstorms and Rain
12:55 AM 70.5 °F 59.2 °F 67% 29.89 in 7.0 mi SSE 15.0 mph - 0.18 in Rain , Thunderstorm Heavy Thunderstorms and Rain
1:15 AM 70.3 °F 59.4 °F 68% 29.88 in 10.0 mi SSE 16.1 mph - 0.04 in Rain Rain
1:35 AM 66.9 °F 61.3 °F 82% 29.91 in 10.0 mi East 13.8 mph 19.6 mph 0.07 in Rain , Thunderstorm Thunderstorms and Rain
1:55 AM 65.5 °F 62.2 °F 89% 29.93 in 10.0 mi ENE 17.3 mph - 0.12 in Rain , Thunderstorm Light Thunderstorms and Rain
2:15 AM 65.3 °F 62.2 °F 90% 29.93 in 7.0 mi NE 12.7 mph - 0.04 in Rain Rain
2:35 AM 65.3 °F 62.6 °F 91% 29.93 in 7.0 mi NNE 9.2 mph - 0.10 in Rain , Thunderstorm Thunderstorms and Rain
2:55 AM 65.7 °F 62.6 °F 90% 29.93 in 10.0 mi NNE 9.2 mph - 0.15 in Rain Rain
3:15 AM 66.0 °F 62.8 °F 89% 29.92 in 7.0 mi North 10.4 mph 16.1 mph 0.04 in Rain Heavy Rain
3:35 AM 66.2 °F 62.8 °F 89% 29.89 in 10.0 mi North 12.7 mph - 0.08 in Rain Rain
3:55 AM 66.6 °F 62.8 °F 88% 29.88 in 10.0 mi North 10.4 mph - 0.09 in Rain Light Rain
4:15 AM 66.7 °F 63.0 °F 88% 29.88 in 10.0 mi North 10.4 mph - 0.02 in Rain Rain
4:35 AM 66.7 °F 63.0 °F 88% 29.89 in 10.0 mi North 10.4 mph - 0.04 in Rain Light Rain
4:55 AM 66.7 °F 62.8 °F 87% 29.89 in 10.0 mi NNE 12.7 mph - 0.04 in Rain Light Rain
5:15 AM 66.2 °F 63.0 °F 89% 29.90 in 10.0 mi NE 12.7 mph - 0.01 in Rain Light Rain
5:35 AM 66.2 °F 62.8 °F 89% 29.91 in 10.0 mi NE 15.0 mph 18.4 mph 0.01 in   Overcast
5:55 AM 66.2 °F 62.8 °F 89% 29.88 in 10.0 mi NNE 15.0 mph 20.7 mph 0.01 in Rain Light Rain
6:15 AM 66.2 °F 62.6 °F 88% 29.89 in 10.0 mi NNE 9.2 mph - N/A Rain Light Rain
6:35 AM 66.4 °F 62.8 °F 88% 29.92 in 10.0 mi NE 8.1 mph - N/A Rain , Thunderstorm Light Thunderstorms and Rain
7:15 AM 66.2 °F 63.0 °F 89% 29.91 in 10.0 mi NNE 6.9 mph - N/A Rain Light Rain
7:35 AM 66.6 °F 63.5 °F 90% 29.91 in 10.0 mi NE 8.1 mph - N/A Rain Light Rain
7:55 AM 66.7 °F 63.9 °F 90% 29.91 in 10.0 mi NE 6.9 mph - N/A Rain Light Rain
8:15 AM 67.5 °F 63.9 °F 88% 29.92 in 10.0 mi ENE 4.6 mph - 0.01 in Rain Light Rain
8:35 AM 67.6 °F 63.9 °F 88% 29.92 in 10.0 mi NE 3.5 mph - 0.01 in Rain Light Rain
8:55 AM 68.0 °F 64.6 °F 89% 29.93 in 10.0 mi Calm Calm - 0.01 in Rain Light Rain
9:15 AM 68.0 °F 64.8 °F 89% 29.93 in 10.0 mi Calm Calm - N/A Rain Light Rain
9:35 AM 68.2 °F 64.9 °F 89% 29.93 in 10.0 mi Calm Calm - N/A Rain Light Rain
9:55 AM 68.9 °F 65.1 °F 88% 29.93 in 10.0 mi North 4.6 mph - N/A   Scattered Clouds
10:15 AM 69.1 °F 64.8 °F 86% 29.94 in 10.0 mi Calm Calm - N/A   Mostly Cloudy
10:35 AM 68.9 °F 65.3 °F 88% 29.94 in 10.0 mi NNW 4.6 mph - N/A   Light Drizzle
10:55 AM 69.1 °F 65.8 °F 89% 29.94 in 10.0 mi Calm Calm - N/A Rain Light Rain
11:15 AM 68.9 °F 65.5 °F 89% 29.94 in 10.0 mi NW 4.6 mph - 0.01 in Rain Light Rain
11:35 AM 68.9 °F 65.5 °F 89% 29.94 in 10.0 mi NNW 4.6 mph - 0.01 in Rain Light Rain
11:55 AM 68.5 °F 65.5 °F 90% 29.95 in 10.0 mi NW 4.6 mph - 0.01 in   Overcast
12:15 PM 68.5 °F 65.7 °F 90% 29.95 in 10.0 mi NW 6.9 mph - N/A   Overcast
12:35 PM 68.4 °F 65.5 °F 90% 29.96 in 10.0 mi WNW 8.1 mph - N/A Rain Light Rain
12:55 PM 68.0 °F 65.1 °F 90% 29.96 in 10.0 mi NW 8.1 mph - N/A   Light Drizzle
1:15 PM 68.2 °F 65.3 °F 90% 29.96 in 10.0 mi NW 9.2 mph - N/A Rain Light Rain
1:35 PM 68.5 °F 64.9 °F 88% 29.97 in 10.0 mi NW 8.1 mph - N/A   Overcast
1:55 PM 68.9 °F 65.5 °F 89% 29.97 in 10.0 mi NW 5.8 mph - N/A   Overcast
2:15 PM 68.4 °F 64.9 °F 89% 29.97 in 10.0 mi NW 6.9 mph - N/A Rain Light Rain
2:35 PM 68.5 °F 65.1 °F 89% 29.97 in 10.0 mi NNW 12.7 mph - N/A   Overcast
2:55 PM 68.0 °F 64.6 °F 89% 29.97 in 10.0 mi NNW 10.4 mph - N/A   Overcast
3:15 PM 68.0 °F 64.8 °F 89% 29.98 in 10.0 mi NNW 11.5 mph - N/A   Overcast
3:35 PM 68.0 °F 64.9 °F 90% 29.98 in 10.0 mi NNW 11.5 mph - N/A   Overcast
3:55 PM 68.2 °F 64.6 °F 88% 29.97 in 10.0 mi NNW 10.4 mph - N/A   Overcast
4:15 PM 68.9 °F 64.8 °F 87% 29.96 in 10.0 mi NNW 9.2 mph - N/A   Overcast
4:35 PM 70.5 °F 65.8 °F 85% 29.95 in 10.0 mi NNW 9.2 mph - N/A   Mostly Cloudy
4:55 PM 72.3 °F 65.8 °F 80% 29.94 in 10.0 mi North 13.8 mph - N/A   Scattered Clouds
5:15 PM 72.9 °F 64.4 °F 75% 29.93 in 10.0 mi NNE 13.8 mph 20.7 mph N/A   Scattered Clouds
5:35 PM 72.0 °F 65.3 °F 79% 29.91 in 10.0 mi NNE 16.1 mph 24.2 mph N/A   Mostly Cloudy
5:55 PM 72.9 °F 64.9 °F 76% 29.90 in 10.0 mi NNE 20.7 mph 27.6 mph N/A   Mostly Cloudy
6:15 PM 72.5 °F 63.0 °F 72% 29.91 in 10.0 mi NNE 16.1 mph 25.3 mph N/A   Scattered Clouds
6:35 PM 72.0 °F 62.1 °F 71% 29.91 in 10.0 mi North 12.7 mph 17.3 mph N/A   Clear
6:55 PM 72.5 °F 62.8 °F 71% 29.92 in 10.0 mi North 10.4 mph - N/A   Clear
7:15 PM 71.8 °F 62.2 °F 72% 29.91 in 10.0 mi NNE 5.8 mph - N/A   Clear
7:35 PM 71.8 °F 62.6 °F 73% 29.91 in 10.0 mi North 4.6 mph - N/A   Clear
7:55 PM 71.2 °F 62.6 °F 74% 29.91 in 10.0 mi ENE 5.8 mph - N/A   Clear
8:15 PM 70.9 °F 63.1 °F 76% 29.91 in 10.0 mi Calm Calm - N/A   Clear
8:35 PM 70.2 °F 62.8 °F 77% 29.92 in 10.0 mi Calm Calm - N/A   Clear
8:55 PM 69.1 °F 62.6 °F 80% 29.92 in 10.0 mi WSW 4.6 mph - N/A   Clear
9:35 PM 67.5 °F 62.1 °F 83% 29.93 in 10.0 mi WNW 3.5 mph - N/A   Clear
9:55 PM 66.6 °F 61.7 °F 84% 29.93 in 10.0 mi NNW 3.5 mph - N/A   Clear
10:15 PM 66.2 °F 61.7 °F 85% 29.94 in 10.0 mi NW 3.5 mph - N/A   Clear
10:35 PM 65.8 °F 61.9 °F 87% 29.95 in 10.0 mi NNW 4.6 mph - N/A   Clear
10:55 PM 65.3 °F 61.7 °F 88% 29.95 in 10.0 mi NW 3.5 mph - N/A   Clear
11:15 PM 65.3 °F 61.7 °F 88% 29.95 in 10.0 mi NNW 6.9 mph - N/A   Clear
11:35 PM 65.7 °F 61.7 °F 87% 29.94 in 10.0 mi North 5.8 mph - N/A   Clear
11:55 PM 64.8 °F 61.2 °F 88% 29.93 in 10.0 mi NNW 3.5 mph - N/A   Clear